Погода в Красницах

Россия / Санкт-Петербург и Ленинградская область     59°27′08″N   30°20′56″E
темп.,
°C
ветер,
м/с
пор.,
м/с
влажн.,
%
обл.,
%
осадки,
мм/ч
давл.,
гПа
погр.,
м
19 января, вт
вт1900:00−11ююз249766 0.0 101680
03:00−12ююз249766 0.0 1016103
06:00−11ююз259796 0.0 1015123
09:00−12юз379795 0.1 1015157
12:00−10юз379486 0.0 1015247
15:00−9ююз269586 0.1 1014234
18:00−12юз259771 0.0 1014122
21:00−12юз239777 0.1 101490
20 января, ср
ср2000:00−12юз259784 0.0 1014106
03:00−10зюз379685 0.1 1015204
06:00−12юз259796 0.0 1014141
09:00−12юз249498 0.1 1015134
12:00−11ююз368667 0.0 1015203
15:00−10ю368734 0.0 1014237
18:00−13ююв389315 0.0 1013190
21:00−12ююв399340 0.0 1012269
21 января, чт
чт2100:00−11ююв4990100 0.0 1010339
03:00−11ююв4993100 0.3 1008410
06:00−10ююв4994100 1.0 1005467
09:00−10юв3794100 2.2 1004422
12:00−8вюв3794100 0.8 1003375
15:00−8вюв4894100 2.2 1002392
18:00−7вюв4995100 2.3 1002382
21:00−7вюв3795100 4.6 1001332
22 января, пт
пт2200:00−6вюв3695100 0.9 1001234
03:00−4юв2498100 1.0 1001145
06:000ю3797100 0.1 1000307
09:00−1ю3796100 0.1 1000336
12:00−2ю4795100 0.0 999348
15:00−1ю4896100 0.0 999474
18:000ю4897100 0.0 998506
21:00+1ю3897100 0.0 998394
23 января, сб
сб2300:00+1ю3797100 0.0 998365
03:00+1ю3897100 0.0 998315
06:00+1ю3798100 0.1 997247
09:00+1ю3799100 0.3 997262
12:00+1ююз37100100 0.1 999280
15:00+1зюз3699100 0.1 1000334
18:00−1юз259893 0.0 1002189
21:00−1ююз369797 0.0 1003284